AAY561 KAVL-KSFB

Flight info

Callsign AAY561
Flight time 1h 12m
Altitude 36000
Route SUG QUIWE Q93 FISHO/N0451F370 Q93 GURGE/N0451F380 Q93 GIPPL Q85 LPERD TTHOR3
Aircraft A320/M-SDE3FGHIRWY/LB1

Departure

Time 2026-05-04 23:15
Airport Asheville Regional Airport (KAVL)

Arrival

Time 2026-05-05 00:27
Airport Orlando Sanford International Airport (KSFB)
Time Latitude Longitude Altitude Speed Heading
2026-05-04 22:49 35.43408 -82.53829 2135 ft 0 kts 60°
2026-05-04 23:01 35.43407 -82.53829 2135 ft 0 kts 60°
2026-05-04 23:06 35.43396 -82.53852 2134 ft 4 kts 51°
2026-05-04 23:06 35.43377 -82.53873 2135 ft 4 kts 20°
2026-05-04 23:06 35.43358 -82.53875 2133 ft 0 kts 338°
2026-05-04 23:10 35.43407 -82.53899 2134 ft 18 kts 339°
2026-05-04 23:11 35.43489 -82.53938 2135 ft 7 kts 337°
2026-05-04 23:11 35.43520 -82.53988 2133 ft 10 kts 295°
2026-05-04 23:11 35.43571 -82.54044 2135 ft 13 kts 337°
2026-05-04 23:11 35.43668 -82.54087 2135 ft 15 kts 340°
2026-05-04 23:12 35.43774 -82.54135 2135 ft 20 kts 340°
2026-05-04 23:12 35.43909 -82.54195 2133 ft 22 kts 340°
2026-05-04 23:12 35.44063 -82.54264 2135 ft 26 kts 340°
2026-05-04 23:12 35.44235 -82.54343 2135 ft 27 kts 339°
2026-05-04 23:13 35.44407 -82.54420 2135 ft 26 kts 340°
2026-05-04 23:13 35.44572 -82.54495 2135 ft 22 kts 339°
2026-05-04 23:13 35.44654 -82.54544 2135 ft 11 kts 304°
2026-05-04 23:13 35.44646 -82.54626 2135 ft 10 kts 249°
2026-05-04 23:14 35.44601 -82.54652 2135 ft 8 kts 165°
2026-05-04 23:14 35.44591 -82.54647 2135 ft 1 kts 160°
2026-05-04 23:14 35.44432 -82.54577 2135 ft 61 kts 160°
2026-05-04 23:14 35.43818 -82.54300 2135 ft 124 kts 160°
2026-05-04 23:15 35.42877 -82.53878 2419 ft 149 kts 161°
2026-05-04 23:15 35.41914 -82.53449 3143 ft 151 kts 161°
2026-05-04 23:15 35.40916 -82.52980 3818 ft 154 kts 163°
2026-05-04 23:15 35.39871 -82.52518 4274 ft 169 kts 164°
2026-05-04 23:16 35.38698 -82.52006 4551 ft 189 kts 164°
2026-05-04 23:16 35.37411 -82.51441 4862 ft 205 kts 163°
2026-05-04 23:16 35.35988 -82.50814 5148 ft 230 kts 163°
2026-05-04 23:16 35.34429 -82.50124 5560 ft 252 kts 163°
2026-05-04 23:17 35.32731 -82.49366 6193 ft 265 kts 162°
2026-05-04 23:17 35.30978 -82.48565 7018 ft 273 kts 162°
2026-05-04 23:17 35.29205 -82.47661 7848 ft 279 kts 160°
2026-05-04 23:17 35.27412 -82.46693 8720 ft 284 kts 160°
2026-05-04 23:18 35.25600 -82.45691 9633 ft 287 kts 159°
2026-05-04 23:18 35.23754 -82.44669 10266 ft 300 kts 160°
2026-05-04 23:18 35.21770 -82.43586 10552 ft 325 kts 159°
2026-05-04 23:18 35.19644 -82.42431 10977 ft 342 kts 159°
2026-05-04 23:19 35.17443 -82.41235 11648 ft 349 kts 159°
2026-05-04 23:19 35.15204 -82.40017 12359 ft 355 kts 159°
2026-05-04 23:19 35.12926 -82.38779 13047 ft 362 kts 159°
2026-05-04 23:19 35.10608 -82.37523 13742 ft 367 kts 159°
2026-05-04 23:20 35.08255 -82.36252 14354 ft 373 kts 159°
2026-05-04 23:20 35.05836 -82.34948 14993 ft 377 kts 159°
2026-05-04 23:20 35.03419 -82.33646 15651 ft 382 kts 159°
2026-05-04 23:20 35.00979 -82.32331 16297 ft 386 kts 159°
2026-05-04 23:21 34.98512 -82.31001 16922 ft 390 kts 159°
2026-05-04 23:21 34.96013 -82.29653 17550 ft 394 kts 159°
2026-05-04 23:21 34.93496 -82.28296 18169 ft 398 kts 159°
2026-05-04 23:21 34.90945 -82.26925 18724 ft 402 kts 159°
2026-05-04 23:22 34.88375 -82.25545 19256 ft 405 kts 159°
2026-05-04 23:22 34.85787 -82.24155 19795 ft 409 kts 159°
2026-05-04 23:22 34.83177 -82.22755 20329 ft 412 kts 159°
2026-05-04 23:22 34.80539 -82.21346 20863 ft 415 kts 159°
2026-05-04 23:23 34.77886 -82.19930 21394 ft 418 kts 159°
2026-05-04 23:23 34.75215 -82.18500 21916 ft 421 kts 160°
2026-05-04 23:23 34.72525 -82.17062 22407 ft 424 kts 160°
2026-05-04 23:23 34.69821 -82.15616 22945 ft 426 kts 160°
2026-05-04 23:24 34.67100 -82.14161 23425 ft 429 kts 160°
2026-05-04 23:24 34.64357 -82.12699 23850 ft 432 kts 160°
2026-05-04 23:24 34.61593 -82.11225 24251 ft 435 kts 160°
2026-05-04 23:24 34.58809 -82.09742 24663 ft 438 kts 160°
2026-05-04 23:25 34.56017 -82.08254 25049 ft 440 kts 160°
2026-05-04 23:25 34.53204 -82.06753 25443 ft 443 kts 160°
2026-05-04 23:25 34.50381 -82.05246 25820 ft 445 kts 160°
2026-05-04 23:25 34.47532 -82.03729 26196 ft 448 kts 160°
2026-05-04 23:26 34.44673 -82.02213 26578 ft 450 kts 160°
2026-05-04 23:26 34.41801 -82.00695 26967 ft 452 kts 160°
2026-05-04 23:26 34.38911 -81.99170 27342 ft 454 kts 160°
2026-05-04 23:26 34.36002 -81.97634 27715 ft 457 kts 161°
2026-05-04 23:27 34.33047 -81.96074 28080 ft 459 kts 160°
2026-05-04 23:27 34.31025 -81.95004 28326 ft 461 kts 160°
2026-05-04 23:27 34.28079 -81.93444 28667 ft 463 kts 160°
2026-05-04 23:27 34.25121 -81.91878 28988 ft 465 kts 161°
2026-05-04 23:28 34.22148 -81.90306 29322 ft 468 kts 161°
2026-05-04 23:28 34.19159 -81.88729 29617 ft 470 kts 161°
2026-05-04 23:28 34.16153 -81.87145 29932 ft 473 kts 161°
2026-05-04 23:28 34.13132 -81.85557 30224 ft 475 kts 161°
2026-05-04 23:29 34.10098 -81.83963 30489 ft 477 kts 161°
2026-05-04 23:29 34.07050 -81.82365 30830 ft 477 kts 161°
2026-05-04 23:29 34.04017 -81.80771 31226 ft 475 kts 161°
2026-05-04 23:29 34.00994 -81.79180 31620 ft 473 kts 161°
2026-05-04 23:30 33.97981 -81.77596 32005 ft 472 kts 161°
2026-05-04 23:30 33.94976 -81.76018 32398 ft 471 kts 161°
2026-05-04 23:30 33.91976 -81.74447 32773 ft 469 kts 161°
2026-05-04 23:30 33.88991 -81.72889 33194 ft 467 kts 162°
2026-05-04 23:31 33.85976 -81.71319 33606 ft 465 kts 162°
2026-05-04 23:31 33.83050 -81.69790 34002 ft 464 kts 162°
2026-05-04 23:31 33.80059 -81.68224 34342 ft 462 kts 162°
2026-05-04 23:31 33.77110 -81.66683 34631 ft 463 kts 162°
2026-05-04 23:32 33.74151 -81.65142 34915 ft 463 kts 162°
2026-05-04 23:32 33.71196 -81.63602 35174 ft 464 kts 162°
2026-05-04 23:32 33.68233 -81.62059 35432 ft 464 kts 162°
2026-05-04 23:32 33.65267 -81.60517 35650 ft 465 kts 162°
2026-05-04 23:33 33.62297 -81.58974 35892 ft 465 kts 162°
2026-05-04 23:33 33.59317 -81.57428 36041 ft 467 kts 162°
2026-05-04 23:33 33.53401 -81.54359 36044 ft 467 kts 162°
2026-05-04 23:34 33.47445 -81.51273 36055 ft 466 kts 162°
2026-05-04 23:34 33.41482 -81.48185 36055 ft 466 kts 162°
2026-05-04 23:35 33.35521 -81.45116 36065 ft 467 kts 162°
2026-05-04 23:35 33.29553 -81.42058 36057 ft 466 kts 164°
2026-05-04 23:36 33.23394 -81.40040 36060 ft 457 kts 174°
2026-05-04 23:36 33.17216 -81.38482 36059 ft 457 kts 174°
2026-05-04 23:37 33.10998 -81.36916 36057 ft 457 kts 174°
2026-05-04 23:37 33.04779 -81.35335 36060 ft 457 kts 174°
2026-05-04 23:38 32.98553 -81.33746 36064 ft 457 kts 174°
2026-05-04 23:38 32.92331 -81.32183 36062 ft 457 kts 174°
2026-05-04 23:39 32.86107 -81.30625 36060 ft 457 kts 174°
2026-05-04 23:39 32.79844 -81.29044 36047 ft 457 kts 174°
2026-05-04 23:40 32.73579 -81.27454 36061 ft 457 kts 174°
2026-05-04 23:40 32.67354 -81.25892 36072 ft 457 kts 174°
2026-05-04 23:41 32.61135 -81.24339 36079 ft 457 kts 174°
2026-05-04 23:41 32.54963 -81.22798 36048 ft 456 kts 174°
2026-05-04 23:42 32.48743 -81.21381 36057 ft 451 kts 181°
2026-05-04 23:42 32.42554 -81.21431 36065 ft 443 kts 189°
2026-05-04 23:43 32.36391 -81.21751 36072 ft 444 kts 189°
2026-05-04 23:43 32.30225 -81.22064 36059 ft 444 kts 189°
2026-05-04 23:44 32.24054 -81.22369 36075 ft 444 kts 189°
2026-05-04 23:44 32.17886 -81.22677 36082 ft 444 kts 189°
2026-05-04 23:45 32.11724 -81.22981 36088 ft 443 kts 189°
2026-05-04 23:45 32.05575 -81.23286 35652 ft 440 kts 189°
2026-05-04 23:46 32.02511 -81.23439 34889 ft 440 kts 190°
2026-05-04 23:46 31.99454 -81.23594 34312 ft 440 kts 189°
2026-05-04 23:46 31.96384 -81.23690 34102 ft 445 kts 185°
2026-05-04 23:46 31.93278 -81.23372 34047 ft 450 kts 180°
2026-05-04 23:47 31.87041 -81.22575 34070 ft 451 kts 181°
2026-05-04 23:47 31.80793 -81.21792 34072 ft 451 kts 181°
2026-05-04 23:48 31.74548 -81.21008 34077 ft 452 kts 182°
2026-05-04 23:48 31.68326 -81.20241 34088 ft 452 kts 182°
2026-05-04 23:49 31.62030 -81.19466 34082 ft 452 kts 182°
2026-05-04 23:49 31.55772 -81.18678 34083 ft 452 kts 182°
2026-05-04 23:50 31.49560 -81.17903 34082 ft 452 kts 182°
2026-05-04 23:50 31.43309 -81.17145 34061 ft 449 kts 185°
2026-05-04 23:51 31.40229 -81.17171 34081 ft 438 kts 194°
2026-05-04 23:51 31.37254 -81.17729 34079 ft 428 kts 202°
2026-05-04 23:51 31.31849 -81.20235 34078 ft 413 kts 215°
2026-05-04 23:52 31.26729 -81.23296 34072 ft 414 kts 215°
2026-05-04 23:52 31.21583 -81.26329 34030 ft 416 kts 213°
2026-05-04 23:53 31.18841 -81.27531 34081 ft 427 kts 204°
2026-05-04 23:53 31.15927 -81.28184 34093 ft 439 kts 194°
2026-05-04 23:53 31.09688 -81.28255 34080 ft 447 kts 189°
2026-05-04 23:54 31.03552 -81.28207 34089 ft 431 kts 189°
2026-05-04 23:54 30.97608 -81.28177 34087 ft 425 kts 189°
2026-05-04 23:55 30.91702 -81.28182 34092 ft 425 kts 190°
2026-05-04 23:56 30.82829 -81.28182 34102 ft 425 kts 189°
2026-05-04 23:56 30.76910 -81.28168 34101 ft 425 kts 189°
2026-05-04 23:56 30.73936 -81.28159 33694 ft 429 kts 189°
2026-05-04 23:57 30.70969 -81.28147 33390 ft 427 kts 189°
2026-05-04 23:57 30.68001 -81.28138 33129 ft 427 kts 189°
2026-05-04 23:57 30.64988 -81.28129 32799 ft 428 kts 189°
2026-05-04 23:57 30.62018 -81.28124 31880 ft 436 kts 189°
2026-05-04 23:58 30.58972 -81.28104 31273 ft 435 kts 188°
2026-05-04 23:58 30.55902 -81.28004 30559 ft 437 kts 187°
2026-05-04 23:58 30.52860 -81.27841 29637 ft 441 kts 186°
2026-05-04 23:58 30.49762 -81.27654 28458 ft 449 kts 185°
2026-05-04 23:59 30.46660 -81.27459 27848 ft 443 kts 185°
2026-05-04 23:59 30.43595 -81.27268 27243 ft 438 kts 184°
2026-05-04 23:59 30.40573 -81.27092 26642 ft 433 kts 184°
2026-05-04 23:59 30.37575 -81.26928 26051 ft 429 kts 184°
2026-05-05 00:00 30.34610 -81.26774 25486 ft 424 kts 184°
2026-05-05 00:00 30.33661 -81.26726 25305 ft 422 kts 184°
2026-05-05 00:00 30.28819 -81.26491 24399 ft 415 kts 184°
2026-05-05 00:00 30.25914 -81.26348 23858 ft 411 kts 183°
2026-05-05 00:01 30.23108 -81.26192 23239 ft 408 kts 182°
2026-05-05 00:01 30.20276 -81.26016 22684 ft 408 kts 182°
2026-05-05 00:01 30.17451 -81.25833 22137 ft 406 kts 182°
2026-05-05 00:01 30.14642 -81.25649 21590 ft 403 kts 182°
2026-05-05 00:02 30.11848 -81.25469 21042 ft 400 kts 182°
2026-05-05 00:02 30.09080 -81.25298 20490 ft 397 kts 182°
2026-05-05 00:02 30.06331 -81.25130 19971 ft 394 kts 181°
2026-05-05 00:02 30.03602 -81.24964 19440 ft 392 kts 181°
2026-05-05 00:03 30.00889 -81.24799 18910 ft 389 kts 181°
2026-05-05 00:03 29.98185 -81.24634 18373 ft 388 kts 181°
2026-05-05 00:03 29.95533 -81.24473 17796 ft 386 kts 181°
2026-05-05 00:03 29.92819 -81.24309 17215 ft 385 kts 180°
2026-05-05 00:04 29.90193 -81.24162 16703 ft 381 kts 181°
2026-05-05 00:04 29.87554 -81.24051 16196 ft 378 kts 181°
2026-05-05 00:04 29.84898 -81.23962 15672 ft 376 kts 181°
2026-05-05 00:04 29.83140 -81.23910 15332 ft 374 kts 181°
2026-05-05 00:05 29.80543 -81.23833 14821 ft 372 kts 181°
2026-05-05 00:05 29.77986 -81.23751 14325 ft 370 kts 180°
2026-05-05 00:05 29.74538 -81.23628 13623 ft 367 kts 180°
2026-05-05 00:05 29.72029 -81.23535 13119 ft 364 kts 180°
2026-05-05 00:06 29.69515 -81.23444 12613 ft 360 kts 180°
2026-05-05 00:06 29.67028 -81.23356 12140 ft 356 kts 180°
2026-05-05 00:06 29.65363 -81.23293 11880 ft 351 kts 180°
2026-05-05 00:06 29.62934 -81.23173 11799 ft 350 kts 179°
2026-05-05 00:07 29.60508 -81.23036 11723 ft 349 kts 179°
2026-05-05 00:07 29.58100 -81.22893 11638 ft 341 kts 179°
2026-05-05 00:07 29.55800 -81.22752 11516 ft 328 kts 179°
2026-05-05 00:07 29.53545 -81.22616 11383 ft 316 kts 179°
2026-05-05 00:08 29.51391 -81.22490 11257 ft 305 kts 179°
2026-05-05 00:08 29.49298 -81.22372 11044 ft 299 kts 180°
2026-05-05 00:08 29.47225 -81.22261 10798 ft 297 kts 180°
2026-05-05 00:08 29.45162 -81.22155 10556 ft 296 kts 180°
2026-05-05 00:09 29.43107 -81.22044 10326 ft 295 kts 180°
2026-05-05 00:09 29.41058 -81.21930 10097 ft 294 kts 180°
2026-05-05 00:09 29.39017 -81.21815 9911 ft 293 kts 180°
2026-05-05 00:09 29.36980 -81.21701 9780 ft 293 kts 179°
2026-05-05 00:10 29.34941 -81.21597 9642 ft 293 kts 180°
2026-05-05 00:10 29.32912 -81.21512 9506 ft 291 kts 180°
2026-05-05 00:10 29.30888 -81.21433 9384 ft 291 kts 180°
2026-05-05 00:10 29.28869 -81.21353 9256 ft 290 kts 180°
2026-05-05 00:11 29.26854 -81.21274 9127 ft 290 kts 180°
2026-05-05 00:11 29.24838 -81.21197 8966 ft 289 kts 180°
2026-05-05 00:11 29.22829 -81.21098 8656 ft 288 kts 179°
2026-05-05 00:11 29.20835 -81.20967 8301 ft 286 kts 178°
2026-05-05 00:12 29.18831 -81.20823 7941 ft 285 kts 178°
2026-05-05 00:12 29.16852 -81.20679 7596 ft 283 kts 179°
2026-05-05 00:12 29.14891 -81.20539 7246 ft 282 kts 178°
2026-05-05 00:12 29.12940 -81.20404 6896 ft 280 kts 178°
2026-05-05 00:13 29.10997 -81.20285 6549 ft 278 kts 179°
2026-05-05 00:13 29.09068 -81.20236 6185 ft 277 kts 181°
2026-05-05 00:13 29.07150 -81.20222 5843 ft 274 kts 181°
2026-05-05 00:13 29.05246 -81.20220 5497 ft 273 kts 181°
2026-05-05 00:14 29.03355 -81.20224 5153 ft 271 kts 184°
2026-05-05 00:14 29.01517 -81.20554 5015 ft 266 kts 198°
2026-05-05 00:14 28.99753 -81.21107 5020 ft 268 kts 197°
2026-05-05 00:14 28.97989 -81.21656 5014 ft 250 kts 197°
2026-05-05 00:15 28.96386 -81.22146 5013 ft 233 kts 197°
2026-05-05 00:15 28.94850 -81.22604 4866 ft 224 kts 197°
2026-05-05 00:15 28.93332 -81.23048 4607 ft 222 kts 195°
2026-05-05 00:15 28.91854 -81.23476 4305 ft 222 kts 194°
2026-05-05 00:16 28.90363 -81.23904 3866 ft 221 kts 193°
2026-05-05 00:16 28.88866 -81.24334 3413 ft 221 kts 191°
2026-05-05 00:16 28.87371 -81.24761 2964 ft 222 kts 191°
2026-05-05 00:16 28.85874 -81.25183 2532 ft 221 kts 190°
2026-05-05 00:17 28.84390 -81.25722 2101 ft 224 kts 208°
2026-05-05 00:17 28.83348 -81.27026 2011 ft 228 kts 244°
2026-05-05 00:17 28.82950 -81.28815 2019 ft 232 kts 261°
2026-05-05 00:17 28.82790 -81.30669 2008 ft 235 kts 269°
2026-05-05 00:18 28.82830 -81.32518 2002 ft 232 kts 272°
2026-05-05 00:18 28.82905 -81.34322 2004 ft 218 kts 273°
2026-05-05 00:18 28.82966 -81.36001 2025 ft 209 kts 273°
2026-05-05 00:18 28.83029 -81.37646 2002 ft 206 kts 272°
2026-05-05 00:19 28.83106 -81.39273 1998 ft 204 kts 273°
2026-05-05 00:19 28.83182 -81.40884 2004 ft 204 kts 273°
2026-05-05 00:19 28.83243 -81.42503 2007 ft 205 kts 273°
2026-05-05 00:19 28.83304 -81.44129 2003 ft 206 kts 272°
2026-05-05 00:20 28.83331 -81.45736 1991 ft 206 kts 262°
2026-05-05 00:20 28.82724 -81.47180 1999 ft 199 kts 221°
2026-05-05 00:20 28.81542 -81.47881 2002 ft 189 kts 187°
2026-05-05 00:20 28.80243 -81.48149 2002 ft 191 kts 184°
2026-05-05 00:21 28.78935 -81.48372 2006 ft 189 kts 183°
2026-05-05 00:21 28.77637 -81.48584 1998 ft 188 kts 183°
2026-05-05 00:21 28.76342 -81.48788 2004 ft 188 kts 183°
2026-05-05 00:21 28.75083 -81.48725 1998 ft 177 kts 153°
2026-05-05 00:22 28.74207 -81.47801 1999 ft 171 kts 111°
2026-05-05 00:22 28.74151 -81.46488 2005 ft 170 kts 74°
2026-05-05 00:22 28.74654 -81.45246 2003 ft 173 kts 64°
2026-05-05 00:22 28.75252 -81.44042 2003 ft 173 kts 63°
2026-05-05 00:23 28.75844 -81.42858 1721 ft 172 kts 63°
2026-05-05 00:23 28.76434 -81.41687 1601 ft 169 kts 63°
2026-05-05 00:23 28.77019 -81.40512 1609 ft 170 kts 63°
2026-05-05 00:23 28.77546 -81.39312 1594 ft 168 kts 75°
2026-05-05 00:24 28.77729 -81.38010 1606 ft 166 kts 84°
2026-05-05 00:24 28.77875 -81.36688 1604 ft 169 kts 83°
2026-05-05 00:24 28.78018 -81.35362 1601 ft 164 kts 83°
2026-05-05 00:24 28.78097 -81.34167 1542 ft 141 kts 88°
2026-05-05 00:25 28.78129 -81.33079 1394 ft 134 kts 88°
2026-05-05 00:25 28.78145 -81.32036 1235 ft 130 kts 88°
2026-05-05 00:25 28.78154 -81.31013 1070 ft 129 kts 88°
2026-05-05 00:25 28.78160 -81.29981 900 ft 129 kts 90°
2026-05-05 00:26 28.78165 -81.28955 748 ft 131 kts 89°
2026-05-05 00:26 28.78169 -81.27944 557 ft 128 kts 90°
2026-05-05 00:26 28.78165 -81.26927 393 ft 129 kts 88°
2026-05-05 00:26 28.78171 -81.25862 191 ft 130 kts 89°
2026-05-05 00:27 28.78172 -81.24869 73 ft 122 kts 89°
2026-05-05 00:27 28.78175 -81.24069 66 ft 53 kts 90°
2026-05-05 00:27 28.78176 -81.23805 66 ft 32 kts 90°
2026-05-05 00:27 28.78144 -81.23637 66 ft 16 kts 155°
2026-05-05 00:28 28.78076 -81.23633 58 ft 7 kts 181°
2026-05-05 00:28 28.78031 -81.23635 58 ft 6 kts 181°
2026-05-05 00:28 28.77963 -81.23635 62 ft 20 kts 179°
2026-05-05 00:28 28.77823 -81.23634 60 ft 16 kts 179°
2026-05-05 00:29 28.77764 -81.23675 64 ft 10 kts 252°
2026-05-05 00:29 28.77764 -81.23747 64 ft 9 kts 269°
2026-05-05 00:29 28.77764 -81.23815 59 ft 8 kts 270°
2026-05-05 00:29 28.77763 -81.23877 64 ft 8 kts 270°
2026-05-05 00:30 28.77764 -81.23942 58 ft 9 kts 270°
2026-05-05 00:30 28.77764 -81.24008 64 ft 8 kts 270°
2026-05-05 00:30 28.77764 -81.24073 58 ft 8 kts 270°
2026-05-05 00:30 28.77763 -81.24145 64 ft 13 kts 269°
2026-05-05 00:31 28.77763 -81.24244 64 ft 12 kts 269°
2026-05-05 00:31 28.77762 -81.24336 64 ft 11 kts 269°
2026-05-05 00:31 28.77754 -81.24418 64 ft 9 kts 231°
2026-05-05 00:31 28.77706 -81.24465 61 ft 8 kts 220°
2026-05-05 00:32 28.77674 -81.24499 64 ft 3 kts 225°
2026-05-05 00:32 28.77661 -81.24513 64 ft 2 kts 224°
2026-05-05 00:32 28.77653 -81.24522 64 ft 1 kts 224°
2026-05-05 00:32 28.77649 -81.24526 64 ft 0 kts 224°
2026-05-05 00:34 28.77621 -81.24479 57 ft 0 kts 224°
2026-05-05 00:35 28.77615 -81.24486 65 ft 0 kts 224°